Regional Weather Roundup
Issued by NWS

Home | Current Version | Previous Version | Text Only | Print | Product List | Glossary On
Versions: 1 2 3 4 5 6 7 8 9 10 11 12 13 14 15 16 17 18 19 20 21 22 23 24 25 26 27 28 29 30 31 32 33 34 35 36 37 38 39 40 41 42 43 44 45 46 47 48 49 50
000
ASUS46 KPQR 060610
RWROR

OREGON REGIONAL WEATHER ROUNDUP
NATIONAL WEATHER SERVICE PORTLAND OR
1100 PM PDT THU MAY 05 2016

NOTE: "FAIR" INDICATES FEW OR NO CLOUDS BELOW 12,000 FEET WITH
NO SIGNIFICANT WEATHER AND/OR OBSTRUCTIONS TO VISIBILITY.

ORZ001>013-060700-
NORTHWEST OREGON


CITY           SKY/WX    TMP DP  RH WIND       PRES   REMARKS
ASTORIA        CLEAR     54  48  80 NW13      30.06R
6HR MIN TEMP:  52; 6HR MAX TEMP:  60;

NEWPORT        CLOUDY    52  50  93 N5        30.08R FOG
PORTLAND       MOCLDY    59  46  62 NW6       30.00R
6HR MIN TEMP:  59; 6HR MAX TEMP:  73;

VANCOUVER WA   CLEAR     60  46  59 NW7       29.99R
6HR MIN TEMP:  60; 6HR MAX TEMP:  71;

SCAPPOOSE      CLEAR     60  45  57 NW8       29.99R
6HR MIN TEMP:  60; 6HR MAX TEMP:  71;

HILLSBORO      CLEAR     57  46  66 W9        30.00R
6HR MIN TEMP:  57; 6HR MAX TEMP:  72;

AURORA         PTCLDY    57  47  69 N5        30.00S
6HR MIN TEMP:  57; 6HR MAX TEMP:  70;

MCMINNVILLE    PTCLDY    53  48  83 W5        30.01S
6HR MIN TEMP:  53; 6HR MAX TEMP:  72;

SALEM          PTCLDY    55  47  74 CALM      30.00R
6HR MIN TEMP:  54; 6HR MAX TEMP:  70;

CORVALLIS        N/A     54  46  76 W10       30.02R
EUGENE         PTCLDY    54  49  83 CALM      30.01R
6HR MIN TEMP:  53; 6HR MAX TEMP:  66;

$$

ORZ021-028-060700-
SOUTHWEST OREGON


CITY           SKY/WX    TMP DP  RH WIND       PRES   REMARKS
NORTH BEND     CLOUDY    54  50  87 N12       30.06S
6HR MIN TEMP:  54; 6HR MAX TEMP:  55;

BROOKINGS      CLEAR     51  49  92 CALM      29.96R
ROSEBURG       CLOUDY    58  48  69 N6        30.00R
6HR MIN TEMP:  58; 6HR MAX TEMP:  64;

SEXTON SUMMIT  FOG       45  44  97 N13G22    29.98R VSB 1/4
6HR MIN TEMP:  45; 6HR MAX TEMP:  45;

MEDFORD        CLOUDY    59  49  69 NW5       29.96R
6HR MIN TEMP:  59; 6HR MAX TEMP:  63; 6HR PCP: TRACE;

$$

ORZ014>016-041-060700-
COLUMBIA GORGE


CITY           SKY/WX    TMP DP  RH WIND       PRES   REMARKS
TROUTDALE      PTCLDY    61  46  57 CALM      29.99R
6HR MIN TEMP:  60; 6HR MAX TEMP:  71;

HOOD RIVER     CLOUDY    59  52  77 CALM      29.99R
THE DALLES     CLOUDY    64  50  60 N6        29.96R
6HR MIN TEMP:  64; 6HR MAX TEMP:  70;

$$

ORZ029>031-041-044-049-050-061>064-502-503-505>511-060700-
EASTERN OREGON


CITY           SKY/WX    TMP DP  RH WIND       PRES   REMARKS
REDMOND        CLOUDY    54  51  90 NW8       29.96S
6HR MIN TEMP:  53; 6HR MAX TEMP:  57; 6HR PCP:  0.15;

BEND           CLOUDY    52  50  93 W6        29.96S
PRINEVILLE     CLOUDY    52  50  93 NW8       29.96S
KLAMATH FALLS  CLOUDY    50  46  86 NW10      29.93S
6HR MIN TEMP:  49; 6HR MAX TEMP:  59; 6HR PCP:  0.02;

LAKEVIEW       CLOUDY    50  41  71 N7        29.95S
HERMISTON      CLOUDY    65  50  58 N7        29.91F
6HR MIN TEMP:  65; 6HR MAX TEMP:  74;

PENDLETON      CLOUDY    60  52  74 NW6       29.94R
6HR MIN TEMP:  60; 6HR MAX TEMP:  69; 6HR PCP: TRACE;

JOHN DAY       CLOUDY    55  50  86 N17       29.91F
MEACHAM        RAIN      53  52  96 CALM      30.01R FOG
6HR MIN TEMP:  52; 6HR MAX TEMP:  56; 6HR PCP:  0.16;

LA GRANDE      CLOUDY    55  46  71 W14       29.97R
6HR MIN TEMP:  55; 6HR MAX TEMP:  64; 6HR PCP:  0.46;

BAKER CITY     CLOUDY    53  49  86 NW15      29.93F
6HR MIN TEMP:  53; 6HR MAX TEMP:  70; 6HR PCP:  0.27;

BURNS          PTCLDY    47  45  93 S6        29.90R
6HR MIN TEMP:  47; 6HR MAX TEMP:  63; 6HR PCP:  0.01;

ROME             N/A     44  41  89 S6        29.87S
6HR MIN TEMP:  44; 6HR MAX TEMP:  59; 6HR PCP:  0.03;

ONTARIO        CLEAR     64  48  56 NW14G21   29.81S
6HR MIN TEMP:  63; 6HR MAX TEMP:  78; 6HR PCP: TRACE;

$$



USA.gov is the U.S. government's official web portal to all federal, state and local government web resources and services.